Flag for Vietnam Weather past 2 weeks in Ho Chi Minh, Vietnam

Now
77 °F

Passing clouds.


Feels Like: 78 °F
Forecast: 79 / 90 °F
Wind: 2 mph from Northwest

Location: Ho Chi Minh

Current Time: Jul 29, 2015 at 5:55:09 AM

Latest Report: Jul 29, 2015 at 4:30 AM


Visibility: N/A

Pressure: 29.86 "Hg

Humidity: 89%

Dew point: 73 °F

Location of Ho Chi MinhLocation

Historic Weather in Ho Chi Minh — Graph

°F

Ho Chi Minh temperature yesterday

Maximum temperature yesterday: 93 °F (at 2:00 PM)
Minimum temperature yesterday: 73 °F (at 5:00 PM)
Average temperature yesterday: 83 °F

Past Weeks' High & Low Weather Summary

 TemperatureHumidityPressure
High95 °F (Jul 22, 2:00 PM)94% (Jul 17, 3:30 AM)29.92 "Hg (Jul 17, 3:30 AM)
Low73 °F (Jul 28, 5:00 PM)41% (Jul 27, 1:30 PM)29.62 "Hg (Jul 14, 2:00 PM)
Average84 °F73%29.81 "Hg
* Reported Jul 14 4:00 AM — Jul 29 4:30 AM, Ho Chi Minh, Weather by CustomWeather, © 2015

Note: Actual official high and low records may vary slightly from our data, if they occured in-between our weather recording intervals... More about our weather records

Advertising

Ho Chi Minh weather history for previous 24 hours

 ConditionsComfort  
Time TempWeatherWind HumidityBarometerVisibility
4:30 AM
Wed, Jul 29
77 °FPassing clouds.2 mph89%29.86 "HgN/A
4:00 AM77 °FPassing clouds.3 mph89%29.86 "HgN/A
3:30 AM79 °FPassing clouds.2 mph89%29.83 "HgN/A
3:00 AM79 °FPassing clouds.1 mph84%29.83 "HgN/A
2:30 AM79 °FPassing clouds.1 mph84%29.83 "HgN/A
2:00 AM79 °FPassing clouds.1 mph84%29.86 "HgN/A
1:30 AM79 °FPassing clouds.1 mph84%29.86 "HgN/A
1:00 AM79 °FPassing clouds.1 mph84%29.86 "HgN/A
12:00 AM79 °FPassing clouds.2 mph84%29.89 "HgN/A
11:00 PM
Tue, Jul 28
79 °FLight rain. Passing clouds.2 mph84%29.89 "HgN/A
10:30 PM79 °FPassing clouds.3 mph84%29.92 "HgN/A
10:00 PM79 °FPassing clouds.1 mph84%29.92 "HgN/A
9:30 PM77 °FPassing clouds.No wind89%29.92 "HgN/A
9:00 PM77 °FPartly cloudy.2 mph89%29.92 "HgN/A
8:30 PM77 °FLight rain. Passing clouds.1 mph83%29.92 "Hg5 mi
8:00 PM77 °FThunderstorms. Passing clouds.5 mph83%29.89 "Hg5 mi
7:30 PM77 °FThunderstorms. Passing clouds.1 mph83%29.89 "HgN/A
7:00 PM79 °FThunderstorms. Passing clouds.9 mph74%29.86 "HgN/A
6:30 PM77 °FPassing clouds.16 mph83%29.86 "HgN/A
6:00 PM77 °FLight rain. Scattered clouds.6 mph79%29.83 "Hg5 mi
5:30 PM77 °FThunderstorms. Scattered clouds.5 mph74%29.83 "Hg5 mi
5:00 PM73 °FStrong thunderstorms. Scattered clouds.21 mph78%29.86 "Hg1 mi
4:30 PM82 °FThunderstorms. Scattered clouds.7 mph74%29.80 "Hg4 mi
4:00 PM88 °FThunderstorms. Scattered clouds.10 mph52%29.80 "Hg5 mi
3:30 PM91 °FScattered clouds.6 mph52%29.80 "HgN/A
3:00 PM93 °FScattered clouds.3 mph53%29.80 "HgN/A
2:30 PM91 °FScattered clouds.7 mph56%29.80 "HgN/A
2:00 PM93 °FPartly sunny.6 mph47%29.80 "HgN/A
1:30 PM91 °FPartly sunny.3 mph52%29.83 "HgN/A
1:00 PM91 °FPartly sunny.8 mph52%29.83 "HgN/A
12:30 PM90 °FPartly sunny.6 mph55%29.86 "HgN/A
12:00 PM91 °FPartly sunny.5 mph49%29.86 "HgN/A
11:30 AM91 °FPartly sunny.7 mph56%29.89 "HgN/A
11:00 AM90 °FPartly sunny.6 mph59%29.89 "HgN/A
10:30 AM88 °FPartly sunny.3 mph62%29.92 "HgN/A
10:00 AM86 °FScattered clouds.6 mph66%29.92 "HgN/A
9:30 AM86 °FScattered clouds.5 mph66%29.92 "HgN/A
9:00 AM84 °FScattered clouds.9 mph70%29.92 "HgN/A
8:30 AM84 °FScattered clouds.7 mph70%29.92 "HgN/A
8:00 AM84 °FPassing clouds.7 mph74%29.92 "HgN/A
7:30 AM84 °FPassing clouds.3 mph74%29.89 "HgN/A
7:00 AM82 °FScattered clouds.3 mph79%29.89 "HgN/A
6:30 AM81 °FScattered clouds.3 mph79%29.89 "HgN/A
6:00 AM79 °FScattered clouds.3 mph84%29.86 "HgN/A
5:30 AM81 °FPassing clouds.5 mph79%29.86 "HgN/A
5:00 AM81 °FPassing clouds.3 mph79%29.86 "HgN/A
Weather by CustomWeather, © 2015

See weather overviewHow to use our weather pages